User: anonymous   Login
Location: Vancouver
(49.2500°N, 123.1330°W)
Time: 16:27:27
(UTC-07:00)
Language:

Cosmos 1939 Rocket - Orbit

View from above orbital plane
View from above orbital plane
View from above satellite
View from above satellite

Ground track
Ground track

The orbit data is extracted from the following two-line orbital elements,

1 19046U 88032B   16244.49251765  .00001257  00000-0  99062-4 0  9992
2 19046  97.5725 293.0392 0039604 237.2637 122.4767 15.01980079529158
Epoch (UTC): 31 August 2016 11:49:13
Eccentricity: 0.0039604
inclination: 97.5725°
perigee height: 533 km
apogee height: 588 km
right ascension of ascending node: 293.0392°
argument of perigee: 237.2637°
revolutions per day: 15.01980079
mean anomaly at epoch: 122.4767°
orbit number at epoch: 52915

The dashed part of the orbit path shows where the satellite is in the earth's shadow,  

DLR